Precipitable_Water
0.44 0.42 0.42 0.42 0.40 0.40 0.40 0.42 0.42 0.40 0.40 0.38 0.38 0.38 0.36 0.36 0.32 0.32 0.32 0.32 0.32 0.32 0.32 0.32 0.34 0.34 0.36 0.38 0.40 0.42 0.42 0.42 0.44 0.44 0.44 0.44 0.42 0.42 0.42 0.42 0.42 0.42 0.40 0.40 0.40 0.40 0.38 0.38 0.38 0.38 0.38 0.38 0.38 0.38 0.38 0.38 0.38 0.38 0.36 0.36 0.36 0.36 0.34 0.34 0.34 0.34 0.32 0.32 0.32
0.44 0.44 0.42 0.42 0.42 0.42 0.42 0.42 0.42 0.42 0.40 0.40 0.38 0.38 0.38 0.36 0.32 0.32 0.32 0.32 0.32 0.32 0.32 0.34 0.34 0.36 0.36 0.38 0.42 0.42 0.42 0.44 0.44 0.44 0.44 0.44 0.44 0.44 0.44 0.42 0.42 0.42 0.42 0.40 0.40 0.40 0.40 0.40 0.38 0.38 0.40 0.40 0.40 0.40 0.40 0.40 0.40 0.38 0.38 0.36 0.38 0.38 0.36 0.36 0.36 0.36 0.34 0.34 0.34
0.44 0.44 0.44 0.44 0.42 0.42 0.42 0.42 0.42 0.42 0.40 0.40 0.40 0.38 0.38 0.36 0.34 0.32 0.32 0.32 0.32 0.32 0.34 0.34 0.34 0.36 0.36 0.38 0.40 0.42 0.44 0.44 0.44 0.44 0.44 0.44 0.44 0.44 0.44 0.44 0.44 0.42 0.42 0.42 0.42 0.40 0.40 0.40 0.40 0.40 0.40 0.40 0.40 0.40 0.40 0.42 0.42 0.40 0.38 0.38 0.40 0.38 0.38 0.38 0.38 0.38 0.36 0.36 0.36
0.44 0.44 0.44 0.44 0.42 0.42 0.42 0.42 0.42 0.42 0.42 0.40 0.40 0.40 0.38 0.38 0.34 0.32 0.32 0.32 0.32 0.32 0.34 0.34 0.34 0.36 0.38 0.38 0.40 0.42 0.44 0.44 0.44 0.44 0.44 0.44 0.44 0.44 0.44 0.44 0.44 0.44 0.44 0.42 0.42 0.42 0.40 0.42 0.42 0.40 0.40 0.40 0.40 0.40 0.40 0.42 0.42 0.42 0.42 0.42 0.42 0.42 0.40 0.40 0.40 0.40 0.38 0.38 0.40
0.44 0.44 0.44 0.44 0.44 0.42 0.42 0.44 0.44 0.42 0.42 0.42 0.40 0.40 0.38 0.38 0.34 0.34 0.32 0.32 0.32 0.32 0.34 0.34 0.34 0.36 0.38 0.40 0.42 0.42 0.44 0.44 0.44 0.44 0.44 0.44 0.44 0.44 0.44 0.44 0.44 0.44 0.44 0.42 0.42 0.42 0.42 0.42 0.42 0.42 0.42 0.42 0.42 0.42 0.42 0.42 0.42 0.42 0.42 0.44 0.44 0.44 0.42 0.42 0.42 0.40 0.40 0.40 0.42
0.44 0.46 0.46 0.46 0.44 0.44 0.44 0.44 0.44 0.44 0.44 0.42 0.40 0.40 0.38 0.38 0.36 0.34 0.32 0.32 0.32 0.32 0.34 0.34 0.36 0.36 0.38 0.40 0.42 0.42 0.44 0.44 0.44 0.44 0.44 0.44 0.44 0.46 0.46 0.44 0.44 0.44 0.44 0.44 0.44 0.42 0.42 0.42 0.42 0.42 0.42 0.42 0.42 0.42 0.44 0.44 0.44 0.44 0.44 0.44 0.44 0.44 0.44 0.44 0.42 0.42 0.42 0.42 0.42
0.44 0.46 0.46 0.46 0.46 0.46 0.46 0.46 0.46 0.46 0.44 0.42 0.40 0.40 0.38 0.38 0.34 0.34 0.32 0.32 0.32 0.32 0.34 0.36 0.36 0.36 0.38 0.40 0.40 0.42 0.42 0.44 0.44 0.44 0.46 0.44 0.44 0.46 0.46 0.46 0.46 0.46 0.44 0.44 0.44 0.44 0.44 0.44 0.42 0.42 0.42 0.42 0.42 0.44 0.44 0.44 0.44 0.44 0.44 0.44 0.46 0.46 0.46 0.44 0.44 0.44 0.42 0.42 0.42
0.46 0.46 0.46 0.48 0.46 0.46 0.46 0.46 0.46 0.46 0.46 0.44 0.42 0.40 0.38 0.38 0.34 0.34 0.32 0.32 0.32 0.32 0.34 0.34 0.36 0.36 0.38 0.40 0.40 0.42 0.42 0.44 0.44 0.44 0.46 0.46 0.44 0.46 0.46 0.46 0.46 0.46 0.46 0.46 0.44 0.44 0.44 0.44 0.42 0.42 0.42 0.44 0.44 0.44 0.44 0.44 0.44 0.44 0.44 0.44 0.46 0.46 0.46 0.46 0.46 0.46 0.44 0.42 0.42
0.46 0.46 0.48 0.48 0.48 0.48 0.46 0.46 0.48 0.46 0.46 0.44 0.42 0.40 0.38 0.38 0.36 0.34 0.34 0.32 0.32 0.32 0.34 0.34 0.36 0.36 0.38 0.40 0.40 0.42 0.42 0.44 0.44 0.44 0.44 0.46 0.46 0.46 0.46 0.46 0.46 0.46 0.46 0.46 0.46 0.44 0.44 0.44 0.44 0.42 0.44 0.44 0.44 0.44 0.44 0.46 0.44 0.44 0.44 0.44 0.46 0.46 0.48 0.48 0.46 0.46 0.46 0.46 0.44
0.44 0.46 0.48 0.50 0.50 0.50 0.48 0.48 0.48 0.48 0.46 0.44 0.42 0.42 0.40 0.38 0.38 0.36 0.34 0.34 0.34 0.34 0.34 0.34 0.36 0.36 0.38 0.40 0.40 0.42 0.42 0.44 0.44 0.44 0.44 0.46 0.46 0.46 0.46 0.46 0.46 0.46 0.46 0.46 0.46 0.46 0.44 0.44 0.44 0.44 0.44 0.44 0.44 0.44 0.46 0.46 0.46 0.44 0.44 0.46 0.46 0.46 0.48 0.48 0.48 0.48 0.46 0.46 0.46
0.44 0.46 0.48 0.48 0.50 0.50 0.50 0.48 0.48 0.48 0.48 0.46 0.44 0.44 0.42 0.40 0.38 0.36 0.36 0.36 0.34 0.34 0.34 0.34 0.36 0.36 0.38 0.40 0.40 0.42 0.42 0.44 0.44 0.44 0.44 0.46 0.46 0.46 0.46 0.46 0.46 0.46 0.46 0.46 0.46 0.46 0.46 0.44 0.42 0.42 0.44 0.44 0.44 0.44 0.44 0.46 0.46 0.46 0.46 0.46 0.46 0.46 0.46 0.48 0.48 0.48 0.48 0.48 0.46
0.46 0.46 0.48 0.48 0.50 0.50 0.50 0.48 0.48 0.48 0.48 0.46 0.46 0.44 0.42 0.40 0.40 0.38 0.36 0.36 0.34 0.34 0.34 0.34 0.36 0.36 0.38 0.40 0.40 0.42 0.44 0.44 0.44 0.44 0.44 0.44 0.46 0.46 0.46 0.46 0.46 0.46 0.46 0.46 0.46 0.46 0.46 0.44 0.44 0.42 0.44 0.44 0.44 0.44 0.46 0.46 0.46 0.46 0.46 0.46 0.46 0.46 0.46 0.48 0.48 0.48 0.48 0.48 0.46
0.48 0.46 0.48 0.48 0.48 0.48 0.48 0.48 0.48 0.48 0.48 0.48 0.46 0.44 0.44 0.42 0.40 0.38 0.38 0.36 0.34 0.34 0.34 0.36 0.36 0.36 0.38 0.38 0.40 0.42 0.44 0.44 0.44 0.44 0.44 0.44 0.46 0.46 0.46 0.46 0.46 0.46 0.46 0.46 0.46 0.46 0.46 0.44 0.44 0.44 0.44 0.44 0.44 0.44 0.46 0.46 0.46 0.46 0.46 0.46 0.46 0.46 0.46 0.46 0.48 0.48 0.48 0.48 0.48
0.48 0.48 0.48 0.48 0.48 0.48 0.48 0.48 0.48 0.48 0.48 0.46 0.46 0.46 0.44 0.42 0.42 0.40 0.38 0.36 0.36 0.36 0.36 0.36 0.36 0.36 0.38 0.38 0.40 0.42 0.42 0.44 0.44 0.44 0.44 0.44 0.46 0.46 0.46 0.46 0.46 0.46 0.46 0.46 0.46 0.46 0.46 0.44 0.44 0.44 0.44 0.44 0.44 0.44 0.46 0.46 0.46 0.46 0.46 0.46 0.46 0.46 0.46 0.48 0.48 0.48 0.48 0.48 0.48
0.50 0.50 0.48 0.48 0.48 0.48 0.48 0.46 0.46 0.46 0.46 0.46 0.46 0.46 0.44 0.42 0.42 0.40 0.38 0.38 0.36 0.36 0.36 0.36 0.36 0.36 0.38 0.38 0.40 0.42 0.42 0.44 0.44 0.44 0.44 0.44 0.44 0.46 0.46 0.46 0.46 0.46 0.46 0.46 0.46 0.46 0.46 0.46 0.46 0.44 0.44 0.44 0.44 0.44 0.46 0.46 0.46 0.46 0.46 0.46 0.46 0.46 0.48 0.48 0.48 0.48 0.48 0.48 0.48
0.52 0.50 0.50 0.48 0.48 0.48 0.46 0.46 0.46 0.46 0.46 0.46 0.46 0.46 0.46 0.44 0.42 0.40 0.38 0.38 0.38 0.36 0.36 0.36 0.36 0.36 0.38 0.40 0.40 0.42 0.42 0.44 0.44 0.44 0.44 0.44 0.44 0.46 0.46 0.46 0.46 0.46 0.46 0.46 0.46 0.46 0.46 0.46 0.46 0.46 0.46 0.44 0.44 0.46 0.46 0.46 0.46 0.46 0.46 0.48 0.48 0.48 0.48 0.48 0.50 0.50 0.50 0.50 0.48
0.52 0.50 0.50 0.50 0.48 0.48 0.48 0.46 0.46 0.46 0.46 0.46 0.46 0.46 0.46 0.44 0.42 0.40 0.38 0.38 0.38 0.38 0.36 0.36 0.38 0.38 0.38 0.38 0.40 0.42 0.42 0.44 0.44 0.44 0.44 0.44 0.44 0.44 0.46 0.46 0.46 0.46 0.46 0.46 0.46 0.46 0.46 0.46 0.46 0.46 0.46 0.46 0.46 0.46 0.46 0.46 0.48 0.48 0.48 0.48 0.48 0.48 0.48 0.50 0.50 0.50 0.50 0.50 0.48
0.52 0.52 0.50 0.50 0.50 0.48 0.48 0.48 0.46 0.46 0.46 0.46 0.46 0.46 0.46 0.44 0.44 0.42 0.40 0.38 0.38 0.38 0.38 0.38 0.38 0.38 0.38 0.38 0.40 0.42 0.42 0.42 0.44 0.44 0.44 0.44 0.44 0.44 0.46 0.46 0.46 0.46 0.48 0.46 0.46 0.46 0.46 0.46 0.46 0.46 0.46 0.46 0.46 0.46 0.48 0.48 0.48 0.48 0.48 0.48 0.48 0.50 0.50 0.50 0.50 0.50 0.50 0.50 0.48
0.50 0.50 0.50 0.50 0.50 0.48 0.48 0.48 0.46 0.46 0.46 0.46 0.46 0.46 0.46 0.44 0.44 0.42 0.40 0.40 0.38 0.38 0.38 0.38 0.38 0.38 0.38 0.38 0.40 0.40 0.42 0.42 0.42 0.44 0.44 0.44 0.44 0.46 0.46 0.46 0.46 0.48 0.48 0.48 0.48 0.48 0.48 0.48 0.48 0.48 0.48 0.48 0.48 0.48 0.48 0.48 0.48 0.48 0.50 0.50 0.50 0.50 0.50 0.50 0.50 0.50 0.50 0.50 0.48
0.50 0.50 0.50 0.50 0.50 0.48 0.48 0.48 0.46 0.46 0.46 0.46 0.46 0.46 0.46 0.44 0.44 0.42 0.40 0.40 0.38 0.38 0.38 0.38 0.38 0.38 0.38 0.38 0.38 0.40 0.42 0.42 0.42 0.44 0.44 0.44 0.46 0.46 0.46 0.46 0.48 0.48 0.48 0.48 0.48 0.48 0.48 0.48 0.48 0.48 0.48 0.48 0.48 0.48 0.48 0.50 0.50 0.50 0.50 0.50 0.50 0.50 0.50 0.50 0.50 0.52 0.50 0.50 0.48
0.50 0.50 0.50 0.50 0.50 0.50 0.48 0.48 0.46 0.46 0.44 0.44 0.44 0.44 0.44 0.44 0.44 0.42 0.40 0.40 0.40 0.40 0.40 0.40 0.40 0.40 0.40 0.38 0.38 0.40 0.40 0.42 0.44 0.44 0.44 0.46 0.46 0.46 0.46 0.48 0.48 0.48 0.48 0.48 0.48 0.50 0.50 0.50 0.50 0.50 0.50 0.50 0.50 0.50 0.50 0.50 0.50 0.50 0.50 0.50 0.50 0.50 0.50 0.50 0.52 0.52 0.50 0.50 0.50
0.52 0.50 0.50 0.50 0.50 0.50 0.50 0.48 0.48 0.46 0.44 0.44 0.44 0.44 0.44 0.44 0.44 0.44 0.42 0.40 0.40 0.40 0.40 0.40 0.40 0.40 0.40 0.40 0.38 0.40 0.40 0.42 0.44 0.44 0.46 0.46 0.46 0.48 0.48 0.48 0.48 0.48 0.48 0.50 0.50 0.50 0.50 0.50 0.50 0.50 0.50 0.50 0.50 0.50 0.50 0.50 0.50 0.50 0.50 0.50 0.50 0.50 0.50 0.52 0.52 0.52 0.52 0.50 0.50
0.52 0.52 0.52 0.52 0.50 0.50 0.50 0.50 0.48 0.46 0.44 0.44 0.44 0.44 0.44 0.44 0.44 0.44 0.44 0.42 0.42 0.40 0.40 0.40 0.42 0.42 0.42 0.42 0.40 0.40 0.40 0.42 0.42 0.44 0.46 0.46 0.46 0.48 0.48 0.50 0.48 0.48 0.48 0.50 0.50 0.50 0.50 0.50 0.50 0.50 0.50 0.50 0.50 0.50 0.50 0.50 0.50 0.50 0.50 0.50 0.50 0.50 0.50 0.52 0.52 0.52 0.52 0.52 0.50
0.54 0.52 0.52 0.52 0.52 0.50 0.50 0.50 0.48 0.46 0.46 0.44 0.44 0.44 0.44 0.44 0.46 0.46 0.44 0.42 0.42 0.42 0.42 0.42 0.42 0.44 0.44 0.42 0.42 0.40 0.40 0.42 0.42 0.44 0.44 0.46 0.48 0.48 0.48 0.50 0.50 0.50 0.50 0.50 0.50 0.50 0.50 0.50 0.50 0.50 0.50 0.50 0.50 0.50 0.50 0.50 0.50 0.50 0.50 0.50 0.50 0.50 0.50 0.52 0.52 0.52 0.52 0.52 0.52
0.54 0.54 0.52 0.52 0.52 0.50 0.50 0.50 0.48 0.46 0.46 0.44 0.44 0.44 0.44 0.46 0.46 0.46 0.44 0.42 0.42 0.42 0.42 0.42 0.44 0.44 0.44 0.44 0.44 0.42 0.42 0.42 0.42 0.44 0.44 0.46 0.48 0.48 0.48 0.50 0.50 0.50 0.50 0.50 0.52 0.52 0.52 0.52 0.52 0.52 0.52 0.52 0.50 0.50 0.50 0.50 0.50 0.50 0.50 0.50 0.50 0.50 0.50 0.52 0.52 0.52 0.52 0.52 0.52
0.54 0.54 0.52 0.52 0.50 0.50 0.50 0.48 0.48 0.48 0.46 0.46 0.46 0.46 0.46 0.46 0.46 0.46 0.46 0.42 0.42 0.42 0.42 0.44 0.44 0.46 0.46 0.46 0.44 0.44 0.42 0.42 0.44 0.44 0.44 0.46 0.46 0.48 0.48 0.50 0.50 0.50 0.52 0.52 0.52 0.52 0.52 0.52 0.52 0.52 0.52 0.52 0.52 0.50 0.50 0.50 0.50 0.50 0.50 0.50 0.50 0.50 0.50 0.52 0.52 0.52 0.52 0.52 0.52
0.54 0.54 0.52 0.52 0.50 0.50 0.48 0.48 0.48 0.48 0.48 0.48 0.46 0.46 0.46 0.46 0.48 0.48 0.46 0.44 0.42 0.44 0.44 0.44 0.46 0.46 0.46 0.46 0.46 0.44 0.44 0.44 0.44 0.44 0.46 0.46 0.46 0.48 0.48 0.50 0.50 0.50 0.52 0.52 0.52 0.52 0.52 0.52 0.52 0.52 0.52 0.52 0.52 0.50 0.50 0.50 0.52 0.52 0.52 0.50 0.50 0.50 0.50 0.50 0.52 0.52 0.52 0.52 0.52
0.54 0.52 0.52 0.52 0.50 0.50 0.50 0.50 0.50 0.50 0.50 0.48 0.48 0.48 0.48 0.48 0.48 0.48 0.48 0.46 0.44 0.44 0.44 0.46 0.46 0.48 0.48 0.48 0.46 0.46 0.44 0.44 0.44 0.46 0.46 0.46 0.48 0.48 0.48 0.50 0.50 0.50 0.52 0.52 0.54 0.54 0.54 0.54 0.54 0.54 0.52 0.52 0.52 0.52 0.52 0.52 0.52 0.52 0.52 0.52 0.52 0.52 0.52 0.52 0.52 0.52 0.52 0.52 0.52
0.54 0.52 0.52 0.50 0.50 0.50 0.50 0.50 0.50 0.50 0.50 0.50 0.50 0.48 0.48 0.48 0.50 0.50 0.48 0.48 0.44 0.44 0.46 0.46 0.48 0.48 0.48 0.48 0.46 0.46 0.46 0.46 0.46 0.46 0.48 0.48 0.48 0.48 0.48 0.50 0.50 0.50 0.52 0.54 0.54 0.54 0.54 0.54 0.54 0.54 0.54 0.54 0.52 0.52 0.52 0.52 0.52 0.52 0.52 0.52 0.52 0.52 0.52 0.52 0.52 0.52 0.52 0.52 0.50
0.54 0.52 0.52 0.50 0.50 0.50 0.50 0.50 0.52 0.52 0.52 0.52 0.50 0.50 0.50 0.50 0.50 0.50 0.50 0.48 0.46 0.46 0.46 0.48 0.48 0.48 0.48 0.48 0.48 0.48 0.46 0.46 0.48 0.48 0.48 0.48 0.48 0.48 0.50 0.50 0.50 0.52 0.52 0.54 0.54 0.54 0.56 0.56 0.56 0.56 0.54 0.54 0.54 0.54 0.52 0.52 0.52 0.52 0.52 0.52 0.52 0.52 0.52 0.52 0.52 0.52 0.52 0.52 0.50
0.54 0.54 0.52 0.52 0.52 0.52 0.52 0.52 0.52 0.54 0.54 0.52 0.52 0.50 0.50 0.50 0.52 0.52 0.50 0.50 0.48 0.48 0.48 0.48 0.48 0.48 0.48 0.50 0.50 0.48 0.48 0.48 0.48 0.48 0.48 0.48 0.48 0.50 0.50 0.50 0.50 0.52 0.52 0.54 0.54 0.56 0.56 0.56 0.56 0.56 0.56 0.56 0.54 0.54 0.54 0.54 0.54 0.52 0.52 0.52 0.54 0.54 0.54 0.54 0.52 0.52 0.52 0.52 0.50
0.54 0.54 0.54 0.52 0.54 0.54 0.54 0.56 0.54 0.54 0.54 0.52 0.52 0.50 0.50 0.52 0.54 0.54 0.52 0.52 0.50 0.48 0.48 0.48 0.48 0.48 0.50 0.50 0.50 0.50 0.50 0.50 0.50 0.50 0.50 0.50 0.50 0.50 0.50 0.52 0.52 0.52 0.54 0.54 0.56 0.56 0.56 0.58 0.58 0.56 0.56 0.56 0.56 0.54 0.54 0.54 0.54 0.54 0.54 0.54 0.54 0.54 0.54 0.54 0.52 0.52 0.52 0.52 0.50
0.54 0.54 0.54 0.54 0.54 0.56 0.56 0.56 0.56 0.54 0.54 0.52 0.52 0.52 0.52 0.54 0.54 0.54 0.54 0.54 0.52 0.50 0.48 0.48 0.48 0.50 0.50 0.50 0.50 0.50 0.50 0.52 0.50 0.50 0.52 0.52 0.52 0.52 0.52 0.52 0.52 0.54 0.54 0.56 0.58 0.58 0.58 0.58 0.58 0.58 0.58 0.56 0.56 0.56 0.54 0.54 0.54 0.54 0.54 0.54 0.54 0.54 0.54 0.54 0.54 0.52 0.52 0.52 0.50
0.56 0.56 0.56 0.56 0.56 0.56 0.56 0.56 0.56 0.54 0.52 0.52 0.52 0.52 0.54 0.56 0.56 0.56 0.56 0.54 0.52 0.52 0.50 0.50 0.50 0.50 0.52 0.52 0.52 0.52 0.52 0.52 0.52 0.52 0.52 0.52 0.52 0.52 0.52 0.54 0.54 0.56 0.56 0.58 0.58 0.59 0.59 0.59 0.59 0.58 0.58 0.58 0.56 0.56 0.56 0.54 0.54 0.54 0.54 0.54 0.54 0.54 0.54 0.54 0.54 0.54 0.52 0.52 0.50
0.58 0.58 0.58 0.58 0.58 0.58 0.56 0.56 0.54 0.54 0.52 0.52 0.52 0.54 0.56 0.56 0.58 0.56 0.56 0.56 0.54 0.52 0.52 0.52 0.52 0.52 0.52 0.54 0.54 0.54 0.54 0.54 0.54 0.54 0.54 0.54 0.54 0.54 0.54 0.54 0.56 0.56 0.58 0.59 0.59 0.59 0.59 0.59 0.59 0.59 0.58 0.58 0.56 0.56 0.56 0.54 0.54 0.54 0.54 0.54 0.54 0.54 0.54 0.54 0.54 0.54 0.52 0.52 0.50
0.59 0.58 0.58 0.58 0.58 0.56 0.56 0.56 0.54 0.52 0.52 0.52 0.54 0.56 0.56 0.58 0.58 0.58 0.58 0.56 0.56 0.54 0.52 0.52 0.52 0.52 0.54 0.54 0.54 0.54 0.54 0.54 0.54 0.56 0.56 0.56 0.56 0.56 0.54 0.56 0.56 0.58 0.59 0.61 0.61 0.61 0.61 0.61 0.61 0.61 0.59 0.58 0.58 0.56 0.56 0.56 0.56 0.56 0.56 0.56 0.56 0.56 0.54 0.54 0.54 0.54 0.52 0.50 0.50
0.59 0.59 0.59 0.58 0.56 0.56 0.56 0.54 0.54 0.52 0.52 0.54 0.56 0.56 0.58 0.59 0.59 0.59 0.59 0.58 0.56 0.54 0.52 0.52 0.52 0.52 0.54 0.54 0.54 0.56 0.56 0.56 0.56 0.56 0.56 0.56 0.56 0.56 0.56 0.56 0.58 0.59 0.59 0.61 0.61 0.61 0.61 0.63 0.61 0.61 0.59 0.59 0.58 0.58 0.56 0.56 0.56 0.56 0.56 0.56 0.56 0.54 0.54 0.54 0.54 0.52 0.52 0.52 0.52
0.59 0.59 0.59 0.58 0.56 0.56 0.54 0.54 0.54 0.54 0.54 0.56 0.58 0.59 0.59 0.59 0.59 0.59 0.59 0.59 0.58 0.56 0.54 0.52 0.52 0.54 0.54 0.54 0.56 0.56 0.58 0.58 0.58 0.58 0.58 0.58 0.58 0.58 0.56 0.58 0.58 0.59 0.61 0.63 0.63 0.63 0.63 0.63 0.61 0.61 0.59 0.59 0.58 0.58 0.58 0.56 0.56 0.56 0.56 0.54 0.54 0.54 0.54 0.54 0.54 0.52 0.52 0.52 0.52
0.59 0.59 0.58 0.58 0.56 0.56 0.56 0.56 0.56 0.56 0.58 0.58 0.59 0.61 0.61 0.61 0.61 0.61 0.61 0.61 0.59 0.58 0.56 0.54 0.54 0.54 0.56 0.56 0.56 0.58 0.58 0.59 0.59 0.59 0.58 0.58 0.58 0.58 0.58 0.59 0.59 0.61 0.63 0.63 0.63 0.63 0.63 0.63 0.61 0.61 0.59 0.59 0.58 0.58 0.58 0.58 0.56 0.56 0.54 0.54 0.54 0.54 0.54 0.54 0.52 0.52 0.52 0.54 0.54
0.61 0.59 0.59 0.58 0.58 0.58 0.58 0.58 0.58 0.59 0.59 0.61 0.61 0.63 0.63 0.63 0.63 0.63 0.63 0.63 0.61 0.59 0.58 0.56 0.56 0.56 0.56 0.56 0.58 0.58 0.58 0.59 0.59 0.59 0.59 0.59 0.59 0.59 0.61 0.61 0.61 0.63 0.63 0.65 0.65 0.63 0.63 0.63 0.61 0.61 0.61 0.59 0.59 0.58 0.58 0.58 0.56 0.56 0.54 0.54 0.54 0.52 0.52 0.52 0.52 0.52 0.54 0.54 0.54
0.61 0.61 0.61 0.61 0.59 0.59 0.59 0.59 0.61 0.63 0.63 0.65 0.65 0.65 0.65 0.65 0.65 0.65 0.65 0.63 0.63 0.61 0.59 0.59 0.58 0.58 0.58 0.58 0.58 0.58 0.58 0.59 0.59 0.61 0.61 0.61 0.61 0.61 0.63 0.63 0.63 0.63 0.65 0.65 0.65 0.65 0.63 0.63 0.63 0.61 0.61 0.59 0.59 0.59 0.58 0.58 0.56 0.54 0.54 0.54 0.54 0.52 0.52 0.52 0.52 0.54 0.54 0.54 0.54
Wind_Speed
44 44 44 44 43 43 43 42 42 42 41 41 41 40 40 39 39 38 38 38 37 37 36 36 36 35 35 34 34 33 32 31 30 30 29 28 27 26 25 24 23 23 22 21 20 20 19 18 17 17 16 15 15 14 13 13 13 12 12 11 11 11 10 10 9 9 9 8 8
45 45 44 44 44 43 43 43 42 42 42 42 41 41 40 40 39 39 39 38 38 37 37 36 36 36 35 35 34 34 33 32 31 30 29 28 27 26 26 25 24 24 23 22 21 20 20 19 18 17 17 16 15 15 14 14 13 13 12 12 12 11 11 10 10 10 9 9 9
45 45 45 45 45 44 44 43 43 43 42 42 41 41 41 40 40 39 39 39 38 38 37 37 37 36 36 35 35 34 33 32 31 30 29 28 28 27 26 26 25 24 24 23 22 21 21 20 19 18 18 17 16 16 15 15 14 14 13 13 12 12 12 11 11 11 10 10 9
45 45 45 46 46 45 45 44 43 43 43 42 42 41 41 41 40 40 39 39 39 39 38 38 37 37 36 36 35 34 34 33 32 31 30 29 28 28 27 27 26 25 25 24 23 22 22 21 20 19 19 18 17 17 16 16 15 15 14 14 13 13 12 12 12 11 11 11 10
46 46 46 46 46 46 45 44 44 44 43 43 42 42 41 41 40 40 40 40 40 39 39 39 38 38 37 36 36 35 34 33 32 31 30 29 29 28 28 27 27 26 25 25 24 23 22 22 21 20 19 19 18 18 17 17 16 15 15 14 14 14 13 13 13 12 12 11 11
46 46 46 46 46 46 45 45 45 44 44 43 43 43 42 41 41 40 40 40 40 40 40 39 39 38 37 37 36 35 34 34 33 32 31 30 30 29 29 28 28 27 26 26 25 24 23 23 22 21 20 20 19 19 18 18 17 16 16 15 15 14 14 14 13 13 13 12 12
46 46 46 46 47 46 46 45 45 45 44 44 44 44 43 42 42 41 41 41 41 40 40 40 39 39 38 37 37 36 35 34 33 33 32 31 31 30 29 29 28 28 27 26 26 25 24 24 23 22 21 21 20 20 19 19 18 17 17 16 16 15 15 15 14 14 13 13 12
46 47 47 47 47 47 46 46 45 45 45 44 44 44 44 43 42 42 42 41 41 41 41 41 40 39 39 38 37 37 36 35 34 33 33 32 31 31 30 30 29 28 28 27 27 26 25 24 24 23 22 22 21 21 20 20 19 18 18 17 17 16 16 16 15 15 14 14 13
47 47 47 47 47 47 47 46 46 46 45 45 45 45 44 44 43 42 42 42 42 42 42 41 41 40 39 39 38 38 37 36 35 34 34 33 32 32 31 31 30 29 29 28 28 27 26 25 24 24 23 22 22 22 21 20 20 19 19 18 18 17 17 17 16 16 15 15 14
47 47 47 47 47 47 47 47 47 46 46 46 45 45 45 44 44 43 43 43 42 43 42 42 41 41 40 40 39 39 38 37 36 35 35 34 34 33 32 32 31 30 29 29 28 28 27 26 25 25 24 23 23 22 22 21 21 20 20 19 19 18 18 18 17 17 16 16 15
47 47 47 47 48 48 47 47 47 47 46 46 46 45 45 45 44 44 43 43 43 43 43 43 42 42 41 41 40 39 39 38 37 36 36 35 34 34 33 32 32 31 30 30 29 28 28 27 26 26 25 24 24 23 23 22 22 21 21 20 20 19 19 19 18 18 17 17 16
48 48 48 48 48 48 48 48 47 47 47 47 46 46 46 45 45 44 44 43 44 44 44 43 43 42 42 41 41 40 39 39 38 37 37 36 35 35 34 33 32 32 31 30 30 29 28 28 27 27 26 25 25 24 24 23 23 22 22 21 21 21 20 20 19 19 18 18 17
48 48 48 48 48 48 48 48 48 48 47 47 47 46 46 46 45 45 44 44 44 44 44 44 44 43 42 42 41 41 40 40 39 38 37 37 36 35 35 34 33 33 32 31 31 30 29 29 28 28 27 26 26 25 25 24 24 23 23 23 22 22 21 21 21 20 19 19 18
48 48 48 49 49 49 49 49 49 48 48 48 47 47 46 46 46 45 45 45 45 45 45 44 44 43 43 42 42 41 41 40 40 39 38 38 37 36 35 35 34 33 33 32 31 31 30 30 29 29 28 27 27 26 26 25 25 24 24 24 23 23 23 22 22 21 20 20 20
49 49 49 49 49 50 50 50 49 49 49 48 48 47 47 46 46 46 46 45 45 45 45 45 44 44 43 43 43 42 42 41 40 40 39 38 38 37 36 35 35 34 33 33 32 32 31 30 30 29 29 28 28 27 27 26 26 25 25 25 24 24 23 23 22 22 21 21 21
49 50 50 50 50 50 50 50 50 50 49 49 48 48 47 47 47 47 46 46 46 46 46 45 45 44 44 43 43 43 42 42 41 40 40 39 38 38 37 36 35 35 34 33 33 32 32 31 31 30 30 29 29 28 28 27 27 26 26 25 25 24 24 23 23 23 22 22 21
50 50 50 50 50 51 51 51 50 50 50 50 49 49 48 48 47 47 47 47 46 46 46 46 45 45 44 44 43 43 43 42 42 41 40 40 39 38 37 37 36 35 35 34 34 33 33 32 31 31 30 30 29 29 28 28 27 27 26 26 25 25 24 24 24 23 23 23 22
51 51 50 50 51 51 51 51 51 51 51 50 50 49 49 48 48 48 47 47 47 47 47 46 46 45 45 44 44 44 43 43 42 42 41 40 39 39 38 37 37 36 35 35 34 34 33 33 32 31 31 30 30 29 29 28 28 27 27 26 26 25 25 25 24 24 24 23 23
51 51 51 51 51 51 51 51 51 51 51 51 50 50 50 49 49 48 48 48 48 47 47 47 46 46 45 45 45 44 44 43 43 42 41 41 40 39 39 38 37 37 36 36 35 35 34 33 33 32 31 31 30 30 29 29 28 28 27 27 26 26 25 25 25 24 24 24 23
51 51 51 51 51 51 51 51 51 51 51 51 51 51 50 50 49 49 49 48 48 48 48 47 47 46 46 46 45 45 44 44 43 43 42 41 40 40 39 38 38 37 37 36 36 35 34 34 33 33 32 31 31 30 30 29 29 28 28 27 27 26 26 26 25 25 25 24 24
51 51 51 51 51 51 51 51 51 51 51 51 51 51 51 50 50 50 49 49 48 48 48 48 47 47 46 46 46 45 45 44 43 43 42 42 41 40 40 39 38 38 37 37 36 36 35 34 34 33 33 32 32 31 31 30 30 29 28 28 27 27 26 26 26 25 25 25 25
52 51 51 51 51 51 50 50 50 51 51 51 51 51 51 51 51 50 50 49 49 48 48 48 48 47 47 47 46 46 45 44 44 43 43 42 41 41 40 39 39 39 38 38 37 36 36 35 34 34 33 33 32 32 31 31 30 30 29 29 28 27 27 27 26 26 26 26 26
51 51 51 51 51 50 50 50 50 50 51 51 51 51 52 51 51 50 50 49 49 49 49 48 48 48 47 47 46 46 45 45 44 44 43 42 42 41 41 40 40 39 39 38 38 37 36 36 35 35 34 34 33 33 32 32 31 31 30 29 29 28 28 27 27 27 27 27 27
51 51 51 50 50 50 50 50 50 50 51 51 51 51 52 51 51 51 50 50 50 49 49 48 48 48 47 47 47 46 46 45 45 44 44 43 42 42 41 41 40 40 39 39 38 38 37 36 36 35 35 34 34 33 33 32 32 31 31 30 30 29 29 28 28 28 28 28 28
51 51 50 50 50 50 50 50 50 50 50 51 51 51 51 51 51 51 51 50 50 50 49 49 48 48 47 47 47 47 47 46 46 45 44 43 43 42 42 41 41 40 40 39 39 39 38 37 37 36 36 35 35 34 34 33 33 32 32 31 31 30 30 29 29 29 29 29 29
51 51 50 50 50 50 50 50 50 50 50 50 50 51 51 51 51 51 51 50 50 50 49 49 48 48 47 47 47 47 47 46 46 46 45 44 43 43 42 42 41 41 40 40 40 40 39 39 38 37 37 36 36 35 34 34 34 33 33 32 32 31 31 30 30 30 30 30 30
50 50 50 50 50 50 50 50 50 50 50 50 50 50 51 51 51 51 51 51 50 50 49 49 48 48 48 47 47 47 47 47 46 46 45 45 44 44 43 42 42 41 41 41 41 40 40 40 39 38 38 37 36 36 35 35 34 34 34 33 33 32 32 32 31 31 31 31 31
50 50 50 50 49 50 50 49 49 49 50 50 50 50 50 51 51 51 51 50 50 50 49 49 49 48 48 47 48 48 47 47 46 46 45 45 45 44 44 43 42 42 42 42 41 41 41 40 40 39 38 38 37 37 36 36 35 35 35 34 34 33 33 33 33 32 32 32 32
50 50 50 49 49 49 49 49 49 49 49 49 49 50 50 51 51 51 51 50 50 50 50 49 49 48 48 48 48 47 47 47 46 46 45 45 45 44 44 43 43 42 42 42 42 42 41 41 41 40 39 39 38 38 37 37 36 36 36 35 35 34 34 34 34 33 33 33 33
50 49 49 49 49 49 49 49 49 49 49 49 49 49 50 51 51 51 51 50 50 50 50 49 49 48 48 48 48 47 47 47 46 46 45 45 45 45 44 44 43 43 43 43 43 42 42 42 41 41 40 40 39 38 38 38 37 37 37 36 36 35 35 35 35 34 34 34 33
49 49 49 49 49 49 49 49 49 48 48 48 49 49 50 51 51 51 51 50 50 50 49 49 49 49 48 48 48 47 47 46 46 46 45 45 45 45 44 44 43 43 43 44 43 43 43 42 42 41 41 40 40 39 39 39 38 38 37 37 37 36 36 36 35 35 35 35 34
48 48 48 48 48 48 48 48 48 48 48 48 49 49 50 50 51 50 50 50 49 49 49 49 49 49 48 48 47 47 47 46 46 46 46 45 45 45 44 44 44 44 44 44 44 44 43 43 42 42 42 41 40 40 40 39 39 39 38 38 37 37 37 36 36 36 36 36 35
48 48 48 48 48 48 47 47 47 47 47 48 48 49 49 50 50 49 49 49 49 49 49 49 49 49 48 48 48 47 47 46 46 46 45 45 45 44 44 44 44 44 44 44 44 44 44 43 43 42 42 42 41 40 40 40 39 39 38 38 38 38 37 37 37 37 37 36 36
47 47 47 47 47 47 47 47 47 47 47 47 48 49 49 49 49 49 48 48 49 49 49 49 49 49 48 48 48 47 47 46 46 46 45 45 45 44 44 44 44 44 44 44 44 44 44 43 43 43 42 42 41 41 40 40 40 39 39 38 38 38 38 37 37 37 37 37 36
46 46 46 46 46 46 46 46 46 46 46 47 47 48 48 48 48 48 48 48 48 48 48 48 48 48 48 48 47 47 47 46 46 45 45 45 45 44 44 44 44 44 44 44 44 44 44 44 43 43 42 41 41 41 40 40 40 39 39 38 38 38 38 38 38 37 37 37 37
45 45 45 45 45 45 45 45 45 45 46 46 47 47 47 47 47 47 47 47 47 47 47 47 47 47 47 47 47 47 47 46 46 46 45 45 45 44 44 44 44 44 45 45 44 44 44 44 43 42 42 41 41 41 40 40 40 39 39 39 38 38 38 38 38 38 38 37 37
44 44 44 44 44 44 44 44 45 45 45 46 46 46 46 46 46 46 46 46 46 47 47 47 47 47 47 47 47 47 47 47 46 46 45 45 45 45 45 44 44 45 45 45 44 44 44 43 43 42 42 41 41 40 40 40 40 39 39 39 39 38 38 38 38 38 38 38 38
43 43 43 43 43 43 43 43 44 44 45 45 45 45 45 45 45 45 45 46 46 46 47 47 47 47 47 47 47 46 46 46 46 46 46 45 45 45 45 45 44 45 45 44 44 44 44 43 43 42 41 41 41 40 40 40 40 39 39 39 39 38 38 38 38 38 38 38 38
42 42 42 42 42 42 43 43 43 44 44 44 44 44 44 44 44 44 45 45 46 46 46 46 47 47 47 46 46 46 46 46 46 46 46 45 45 45 45 44 44 44 44 44 44 43 43 43 42 42 41 41 41 40 40 40 40 40 39 39 39 39 38 38 38 38 38 38 38
41 41 41 41 42 42 42 43 43 43 44 44 44 44 44 44 44 44 44 44 45 45 46 46 46 46 46 46 46 46 46 46 46 46 45 45 45 44 44 44 44 43 43 43 43 43 42 42 42 41 41 40 40 40 40 40 40 40 39 39 39 39 39 39 39 38 39 39 39
40 40 41 41 41 42 42 43 43 43 44 44 44 44 44 43 43 44 44 44 44 45 45 45 46 46 46 46 46 46 46 45 45 45 45 44 44 44 43 43 43 43 42 42 42 42 42 41 41 41 41 40 40 40 40 40 40 40 40 40 39 39 39 39 39 39 39 39 39
Wind_Direction
227 226 226 225 225 225 225 226 226 225 225 225 224 224 224 223 223 223 222 222 221 221 220 220 219 219 219 218 217 217 217 217 217 217 217 217 217 217 218 218 218 218 219 219 218 218 218 218 218 220 221 222 223 224 225 225 226 227 228 229 230 231 231 231 232 234 235 237 240
226 226 225 225 225 225 225 225 226 225 225 225 224 224 224 223 223 222 222 221 221 220 219 219 219 219 218 218 217 217 217 217 217 217 217 217 217 217 218 218 219 219 219 219 218 219 218 218 219 221 222 223 224 225 226 226 226 227 228 229 230 232 232 233 234 235 236 238 240
226 225 225 225 224 224 225 225 225 225 225 224 224 224 224 223 223 222 221 221 220 219 219 219 218 218 218 217 217 217 217 217 217 217 217 217 217 217 218 218 219 219 219 219 219 219 219 219 220 221 222 223 224 225 226 226 226 227 229 230 231 233 233 234 235 237 238 239 241
225 225 224 224 224 224 224 225 225 224 224 224 224 224 223 223 223 222 221 220 219 219 219 218 218 218 217 217 217 217 217 216 216 217 217 217 217 218 218 218 219 219 219 219 219 219 219 219 220 222 223 223 224 225 226 227 227 229 230 231 232 233 234 235 236 237 239 240 242
225 224 224 224 224 224 224 224 224 224 224 224 224 223 223 223 222 221 220 219 219 218 218 218 218 218 217 217 217 216 217 216 216 217 217 217 218 218 218 219 219 220 220 220 220 219 219 220 221 222 223 224 225 226 227 227 228 229 231 232 233 234 235 236 237 238 239 241 242
224 224 224 224 223 223 224 224 224 223 223 223 223 222 222 222 222 221 220 219 218 218 218 217 218 217 217 217 217 217 217 217 217 217 217 218 218 218 219 219 220 220 220 220 220 220 220 221 222 223 224 225 226 227 227 227 228 230 231 232 234 235 236 236 238 239 240 241 243
224 224 224 223 223 223 223 223 223 223 223 223 222 222 222 221 221 220 219 218 218 217 217 217 217 217 217 217 217 217 217 217 217 217 217 218 218 219 219 220 220 220 220 221 221 221 221 222 223 224 225 226 227 228 228 228 229 230 231 232 234 236 236 237 239 240 240 241 242
224 223 223 223 223 223 223 223 223 223 223 223 222 221 221 221 220 219 219 218 217 217 217 217 217 217 217 217 217 217 217 217 217 217 218 218 218 219 219 220 220 221 221 221 221 222 222 223 224 225 225 226 227 228 229 229 230 231 231 233 235 236 237 239 240 241 241 242 243
223 223 223 223 222 222 222 222 222 222 222 222 222 221 221 220 219 219 218 218 217 217 217 217 217 217 217 217 217 217 217 217 217 217 218 218 219 219 220 220 221 221 221 221 222 222 223 224 225 226 226 227 228 229 229 230 231 231 232 234 235 237 238 240 241 242 242 243 244
223 223 222 222 222 222 222 222 222 222 222 222 221 221 220 220 219 219 218 218 218 217 217 217 217 216 217 217 217 217 217 217 217 217 218 218 219 219 220 220 221 221 222 222 222 223 224 225 225 226 227 228 228 229 230 231 231 232 233 235 236 237 238 240 241 242 243 244 244
222 222 222 222 222 222 221 221 222 222 222 221 221 221 220 219 219 219 218 218 218 217 217 217 216 216 217 217 217 217 217 218 218 218 218 219 219 220 220 221 221 221 222 223 223 224 225 225 226 226 227 228 229 229 230 231 231 232 233 235 236 236 237 239 241 242 242 243 244
222 222 222 221 221 221 221 221 221 221 221 221 221 220 220 220 219 219 218 218 218 217 217 217 217 217 217 217 217 218 218 218 218 218 219 219 220 220 221 221 222 222 222 223 224 224 225 226 226 227 227 228 229 230 231 231 232 233 234 235 236 236 237 238 240 241 242 243 243
222 222 221 221 221 220 220 221 221 221 221 221 221 221 220 220 219 219 218 218 218 218 218 217 217 217 217 217 218 218 218 218 218 219 219 220 220 221 221 222 222 223 223 224 224 225 226 226 227 227 228 229 230 231 231 232 232 233 233 234 235 236 237 238 239 240 241 242 243
222 221 221 221 220 220 220 220 221 221 221 221 221 221 220 220 219 219 219 218 218 218 218 217 217 217 217 218 218 218 218 218 219 219 220 220 221 221 222 222 223 223 224 224 225 225 226 227 227 228 228 229 230 231 232 232 233 233 234 235 236 236 237 238 239 240 240 241 242
222 221 221 220 220 220 220 220 221 221 221 221 221 220 220 220 219 219 219 219 218 218 218 217 217 217 218 218 218 218 218 219 219 219 220 220 221 221 222 222 223 223 224 225 225 226 226 227 228 228 229 229 230 231 232 233 234 235 235 236 237 237 238 239 240 240 241 241 242
221 221 220 220 220 220 220 220 221 221 221 221 221 221 220 220 220 219 219 219 219 219 218 218 217 217 218 218 218 218 219 219 219 220 220 221 221 222 222 223 223 224 224 225 225 226 227 228 228 229 230 230 231 232 233 234 235 236 237 237 238 239 240 240 241 242 242 243 243
221 221 220 220 220 220 220 220 221 221 221 221 221 221 221 220 220 220 219 219 219 219 218 218 217 217 218 218 218 219 219 219 220 220 221 221 222 222 222 223 223 224 224 225 225 226 227 228 229 230 230 231 232 233 233 234 235 236 237 238 239 240 241 241 242 243 244 244 245
221 221 220 220 220 220 220 220 221 221 221 221 221 221 221 221 220 220 220 219 219 219 218 218 218 217 217 218 218 219 219 219 220 220 221 221 222 222 223 223 224 224 225 225 226 226 227 228 229 230 231 232 233 233 234 235 236 237 238 239 240 241 242 242 243 244 245 246 247
221 221 221 220 220 220 220 220 221 221 221 221 221 221 221 221 221 220 220 220 220 219 218 218 218 218 218 218 218 219 219 219 220 220 221 222 222 223 223 223 224 224 225 226 226 227 228 229 229 230 231 232 233 234 235 236 237 237 238 239 240 241 242 243 244 245 247 247 248
221 221 221 220 220 220 220 220 221 221 221 221 221 221 221 221 221 220 220 220 220 219 219 218 218 218 218 218 218 219 219 220 220 220 221 222 222 223 223 224 224 225 225 226 227 227 228 229 230 231 231 232 233 234 235 236 237 238 239 240 241 242 243 244 245 246 247 248 249
221 221 221 221 221 220 220 221 221 221 222 222 222 222 221 221 221 220 220 220 220 219 219 218 218 218 218 218 218 218 219 220 220 220 221 222 222 223 223 224 224 225 226 226 227 228 228 229 230 231 232 232 233 234 235 236 237 238 239 240 241 242 243 244 245 246 247 248 249
221 221 221 221 221 221 221 221 221 222 222 222 222 222 222 221 221 220 220 220 220 219 219 219 218 218 218 218 218 218 219 219 220 221 221 222 222 223 223 224 224 225 226 227 227 228 229 230 230 231 232 233 233 234 235 236 237 237 239 240 241 242 243 245 246 247 247 248 249
221 221 221 221 221 221 221 221 222 222 222 222 222 222 221 221 221 220 220 220 219 219 219 219 218 218 218 218 218 218 219 219 220 221 221 222 222 223 223 224 225 225 226 227 228 228 229 230 231 232 232 233 234 234 235 236 237 237 238 239 240 242 243 245 246 247 248 248 249
221 221 221 221 221 221 221 221 222 222 222 222 222 222 221 221 220 220 219 219 219 219 219 219 219 218 218 218 218 218 219 219 219 220 221 222 222 223 223 224 225 226 226 228 228 229 229 230 231 232 233 233 234 235 236 236 237 238 238 239 240 241 243 244 246 247 248 248 249
220 220 221 221 221 221 221 222 222 222 222 222 222 222 221 220 220 219 219 219 219 219 219 219 219 218 218 218 219 219 219 219 219 220 221 221 222 223 224 224 225 226 227 228 228 229 229 231 231 232 233 234 235 235 236 237 237 238 239 239 240 241 242 244 246 247 248 249 250
220 220 220 221 221 221 221 222 222 222 222 222 222 221 221 220 219 219 218 219 219 219 219 219 218 218 218 219 219 219 219 220 220 220 221 221 222 223 224 225 226 227 228 228 228 229 229 230 232 233 234 234 235 236 236 237 238 238 239 240 240 241 242 243 245 247 248 249 250
219 220 220 221 221 221 221 222 222 222 222 222 222 221 220 219 219 218 218 218 219 219 219 218 218 218 218 219 219 219 219 220 220 221 221 222 222 223 224 225 226 227 228 228 228 229 230 231 231 233 234 235 236 236 237 238 238 239 239 240 241 241 242 243 245 246 248 249 251
219 220 220 221 221 221 222 222 222 222 222 222 221 221 220 219 218 218 218 218 218 218 218 218 218 218 219 219 219 219 219 220 221 221 222 222 223 223 224 225 227 228 228 228 229 229 230 231 232 233 234 235 236 237 237 238 239 239 240 240 241 242 243 244 245 246 247 249 250
219 219 220 220 220 221 221 221 222 222 222 222 221 220 219 218 218 217 218 218 218 218 218 218 218 219 219 219 219 219 220 220 221 221 222 222 223 224 225 226 227 228 228 228 229 229 230 231 232 233 234 235 237 238 238 239 239 240 240 241 242 242 243 244 245 246 248 249 250
218 219 219 220 220 221 221 221 221 221 221 221 220 219 218 217 217 217 217 217 218 218 218 218 218 218 218 219 219 219 220 220 221 222 222 222 223 224 225 226 227 228 228 228 229 230 231 231 232 233 234 235 236 238 238 239 240 240 241 242 242 243 243 244 245 246 248 249 250
218 218 219 219 220 220 220 221 221 221 221 220 219 218 217 216 216 217 217 217 218 218 218 218 218 218 218 219 219 219 220 221 221 222 222 223 223 224 225 226 227 228 228 228 229 230 231 232 232 233 234 235 236 238 239 239 240 241 241 242 242 243 244 245 246 247 248 249 250
217 218 218 219 219 219 220 220 220 220 220 219 218 217 216 216 216 217 217 218 218 218 217 217 217 218 218 219 219 219 220 220 221 222 222 223 224 225 226 226 227 228 228 228 229 230 231 232 232 233 234 235 236 238 239 239 240 241 242 242 243 243 244 245 246 247 248 249 250
217 217 218 218 218 219 219 219 219 219 218 218 217 216 215 216 216 217 217 218 218 217 217 217 217 218 218 218 219 219 220 220 221 222 222 223 224 225 226 227 228 228 228 229 229 230 231 231 232 233 234 235 237 238 239 240 241 242 242 243 243 244 245 246 247 248 249 250 251
216 216 217 217 218 218 218 218 218 218 217 216 216 215 215 215 215 216 217 218 218 218 218 218 218 218 218 219 219 219 220 221 221 222 223 223 224 225 226 227 228 229 229 229 229 230 231 232 232 233 234 235 237 238 239 240 241 242 242 243 244 245 246 246 247 248 249 251 252
215 216 216 216 217 217 217 217 217 217 216 215 215 214 214 215 215 216 217 217 218 218 218 218 218 219 219 219 220 220 220 220 221 222 223 223 224 225 226 227 228 229 229 229 230 230 231 232 232 233 234 235 237 238 239 240 241 241 242 243 244 245 246 247 248 249 250 251 252
215 215 215 216 216 216 216 216 216 215 214 214 214 213 214 215 216 216 217 217 217 217 217 218 218 218 219 219 220 220 220 221 221 222 223 224 224 225 226 227 228 229 229 229 230 231 231 232 232 233 234 236 238 239 239 240 241 241 242 243 244 245 246 247 248 249 250 251 253
214 214 214 215 215 215 215 215 214 214 213 213 213 213 214 214 216 217 217 217 217 217 217 218 218 218 219 219 220 221 221 221 222 222 223 224 225 226 227 228 229 229 230 230 230 231 232 232 233 234 235 237 238 239 239 240 241 241 242 243 244 245 246 247 248 249 251 252 253
214 214 214 214 214 214 214 214 213 213 212 212 213 213 214 215 216 216 217 217 217 217 217 218 218 218 219 220 220 221 222 222 223 223 224 225 226 227 228 228 230 230 231 231 231 232 232 232 233 234 236 237 238 239 239 240 241 241 242 243 244 245 247 248 249 250 251 252 253
213 213 213 213 213 213 213 212 212 212 211 212 212 213 214 215 216 217 217 218 218 218 218 218 218 219 219 220 221 221 222 223 224 224 225 226 227 228 229 229 230 231 231 231 231 232 232 233 234 235 236 237 238 239 239 240 241 241 242 243 244 245 247 248 249 250 252 253 253
212 212 212 212 212 211 211 211 211 211 211 211 212 213 214 215 216 216 217 218 218 218 218 218 218 219 220 220 221 221 222 224 225 225 226 227 228 229 229 230 231 231 232 232 232 232 233 233 234 235 236 238 239 239 240 240 241 241 242 243 244 245 247 248 249 251 252 253 254
212 211 211 211 211 210 210 210 210 210 211 211 212 213 214 215 215 216 217 217 218 218 218 218 219 219 220 220 221 222 223 224 225 226 227 228 229 229 230 230 231 231 232 232 232 232 233 234 235 236 237 238 239 239 240 240 241 241 242 243 244 245 247 248 250 251 253 254 255